Regional Weather Roundup
Issued by NWS Little Rock, AR

Home | Current Version | Previous Version | Graphics & Text | Print | Product List | Glossary On
Versions: 1 2 3 4 5 6 7 8 9 10 11 12 13 14 15 16 17 18 19 20 21 22 23 24 25 26 27 28 29 30 31 32 33 34 35 36 37
000
ASUS44 KLZK 221105
RWRLZK

WEATHER ROUNDUP FOR ARKANSAS
NATIONAL WEATHER SERVICE LITTLE ROCK AR
600 AM CDT WED OCT 22 2014

NOTE: "FAIR" INDICATES FEW OR NO CLOUDS BELOW 12,000 FEET WITH NO
SIGNIFICANT WEATHER AND/OR OBSTRUCTIONS TO VISIBILITY.

ARZ001-003-010-029-221200-
NORTHWEST ARKANSAS

CITY           SKY/WX    TMP DP  RH WIND       PRES   REMARKS
FAYETTEVILLE   PTCLDY    45  45 100 CALM      30.15S
FORT SMITH     CLEAR     56  54  93 E7        30.13R
HARRISON       CLEAR     48  46  93 SE7       30.19S
BENTONVILLE    CLEAR     54  48  82 SE5       30.15S
ROGERS         PTCLDY    54  50  86 E10       30.16S
SILOAM SPGS    CLEAR     54  46  76 E3        30.16R
HIGHFILL       CLEAR     52  50  93 CALM      30.15R
SPRINGDALE     PTCLDY    50  48  93 E6        30.17
$$

ARZ004-005-016-221200-
NORTH CENTRAL ARKANSAS

CITY           SKY/WX    TMP DP  RH WIND       PRES   REMARKS
BATESVILLE     CLEAR     46  45  93 CALM      30.22R
FLIPPIN          N/A     45  39  81 NE6       30.21S VSB 3/4
MTN HOME       CLEAR     48  45  89 E6        30.21R
$$

ARZ040-041-221200-
WEST CENTRAL ARKANSAS

CITY           SKY/WX    TMP DP  RH WIND       PRES   REMARKS
MENA           CLOUDY    52  52 100 CALM      30.15S VSB<1/4
MOUNT IDA      FOG       51  50  96 CALM      30.12S VSB 1/4
$$

ARZ009-017-025-026-028-221200-
NORTHEAST ARKANSAS

CITY           SKY/WX    TMP DP  RH WIND       PRES   REMARKS
CORNING        FAIR      46  45  93 N8        30.24R
JONESBORO      CLEAR     51  46  83 NE7       30.21R
NEWPORT        CLEAR     46  45  97 N6        30.22R
WALNUT RIDGE   CLEAR     48  39  71 N7        30.22R
BLYTHEVILLE    CLEAR     44  42  93 N6        30.22R
$$

ARZ022-023-033-042-044-221200-
CENTRAL ARKANSAS

CITY           SKY/WX    TMP DP  RH WIND       PRES   REMARKS
LITTLE ROCK    CLEAR     51  46  83 NE5       30.17R
N LITTLE ROCK    N/A     53  49  86 NE8       30.17R
JACKSONVILLE   CLEAR     49  45  88 E5        30.17R
SEARCY         CLEAR     48  46  93 N5        30.21R
HOT SPRINGS    MOCLDY    51  49  92 CALM      30.15S
RUSSELLVILLE   CLEAR     50  48  93 CALM      30.16R
$$

ARZ036-221200-
EAST ARKANSAS

CITY           SKY/WX    TMP DP  RH WIND       PRES   REMARKS
WEST MEMPHIS   CLEAR     47  46  97 NE5       30.18R
$$

ARZ050-053-066-070-073-221200-
SOUTHWEST ARKANSAS

CITY           SKY/WX    TMP DP  RH WIND       PRES   REMARKS
ARKADELPHIA    FAIR      53  53 100 CALM      30.14R
CAMDEN         FOG       46  45  93 CALM      30.12S VSB<1/4
TEXARKANA      PTCLDY    54  54 100 NE5       30.12R FOG
EL DORADO      CLEAR     51  50  96 CALM      30.12R
DE QUEEN       PTCLDY    56  55  97 CALM      30.11R
$$

ARZ056-057-069-221200-
SOUTHEAST ARKANSAS

CITY           SKY/WX    TMP DP  RH WIND       PRES   REMARKS
PINE BLUFF     CLEAR     51  47  86 N3        30.15R
STUTTGART      CLEAR     48  45  87 NE9       30.17R
MONTICELLO     CLEAR     51  47  86 CALM      30.13R

$$





USA.gov is the U.S. government's official web portal to all federal, state and local government web resources and services.